Waarnemingen

Advertentie
Mijn weer
Antwerpen, België (6450): temperatuur & dauwpunt: 18.01.2020 07:00:00 - 24.01.2020 07:00:00 (CET)Antwerpen, België (6450): windsnelheid & windstoten: 18.01.2020 07:00:00 - 24.01.2020 07:00:00 (CET)Antwerpen, België (6450): windrichting: 18.01.2020 07:00:00 - 24.01.2020 07:00:00 (CET)Antwerpen, België (6450): luchtdruk: 18.01.2020 07:00:00 - 24.01.2020 07:00:00 (CET)Antwerpen, België (6450): zicht: 18.01.2020 07:00:00 - 24.01.2020 07:00:00 (CET)
Datum & Tijd tt [°C] td [°C] ff [km/u] ff [kn] fx [km/u] fx [kn] dd ppp [hPa] vv [km]
24.01.2020 07:00:00 1,5 0,8 8 4 - - ZW 1024,2 2,8
24.01.2020 06:00:00 1,5 1,0 8 4 14 8 ZZW 1024,4 2,8
24.01.2020 05:00:00 1,7 1,0 8 4 11 6 ZW 1024,8 2,9
24.01.2020 04:00:00 1,7 1,3 5 3 - - Z 1025,2 2,2
24.01.2020 03:00:00 1,6 1,3 5 3 11 6 Z 1025,9 1,7
24.01.2020 02:00:00 1,5 1,3 4 2 14 8 - 1026,3 0,9
24.01.2020 01:00:00 1,7 1,4 9 5 - - ZZO 1026,6 1,0
24.01.2020 00:00:00 1,7 1,4 5 3 14 8 OZO 1026,9 1,4
23.01.2020 23:00:00 2,1 1,6 8 4 14 8 ZO 1027,2 1,8
23.01.2020 22:00:00 2,4 1,7 8 4 - - O 1027,3 2,0
23.01.2020 21:00:00 2,7 2,0 8 4 14 8 ONO 1027,5 2,0
23.01.2020 20:00:00 3,0 2,1 11 6 18 10 OZO 1027,9 2,7
23.01.2020 19:00:00 3,3 2,2 11 6 - - OZO 1028,1 3,6
23.01.2020 18:00:00 3,9 2,0 11 6 18 10 ONO 1028,5 6
23.01.2020 17:00:00 4,1 2,0 11 6 18 10 O 1029,0 7
23.01.2020 16:00:00 4,8 2,2 9 5 - - O 1029,4 8
23.01.2020 15:00:00 4,8 2,0 15 8 22 12 O 1030,1 9
23.01.2020 14:00:00 5,0 2,1 15 8 22 12 OZO 1031,1 10
23.01.2020 13:00:00 5,1 2,4 11 6 - - ONO 1031,9 8
23.01.2020 12:00:00 4,6 2,7 9 5 14 8 ONO 1032,6 6
23.01.2020 11:00:00 4,4 3,0 9 5 14 8 O 1033,2 4,5
23.01.2020 10:00:00 4,1 3,2 9 5 - - O 1033,5 3,5
23.01.2020 09:00:00 4,1 3,3 8 4 11 6 O 1033,5 2,8
23.01.2020 08:00:00 4,1 3,5 5 3 14 8 O 1033,7 2,7
23.01.2020 07:00:00 4,4 3,7 8 4 - - ONO 1033,8 2,0
23.01.2020 06:00:00 4,5 3,8 5 3 11 6 ONO 1034,0 2,2
23.01.2020 05:00:00 4,5 3,9 8 4 11 6 ONO 1034,6 2,1
23.01.2020 04:00:00 4,3 4,0 4 2 - - - 1035,2 2,2
23.01.2020 03:00:00 4,4 4,0 5 3 7 4 O 1035,9 2,4
23.01.2020 02:00:00 4,5 4,1 5 3 11 6 O 1036,2 2,4
23.01.2020 01:00:00 4,6 4,1 0 0 - - N 1036,5 2,6
23.01.2020 00:00:00 4,4 3,8 4 2 4 2 NNO 1036,8 2,2
22.01.2020 23:00:00 4,7 4,2 2 1 7 4 - 1037,0 2,0
22.01.2020 22:00:00 4,7 4,2 4 2 - - NNO 1037,3 2,1
22.01.2020 21:00:00 4,7 4,3 4 2 7 4 - 1037,3 1,6
22.01.2020 20:00:00 4,5 3,9 2 1 4 2 - 1037,1 1,3
22.01.2020 19:00:00 4,5 4,2 2 1 - - - 1037,0 0,9
22.01.2020 18:00:00 4,5 3,9 2 1 7 4 - 1036,8 1,5
22.01.2020 17:00:00 4,6 3,4 4 2 7 4 W 1036,6 3,0
22.01.2020 16:00:00 4,5 3,0 4 2 - - - 1036,7 3,5
22.01.2020 15:00:00 4,5 2,7 4 2 7 4 - 1036,7 4,6
22.01.2020 14:00:00 4,3 2,7 2 1 4 2 - 1037,0 3,8
22.01.2020 13:00:00 3,3 1,8 2 1 - - - 1037,5 3,4
22.01.2020 12:00:00 2,4 1,3 4 2 7 4 - 1038,1 2,8
22.01.2020 11:00:00 1,6 0,5 4 2 7 4 - 1038,1 2,7
22.01.2020 10:00:00 1,1 0,3 5 3 - - Z 1037,9 2,0
22.01.2020 09:00:00 0,6 -0,1 4 2 7 4 Z 1038,1 1,9
22.01.2020 08:00:00 0,3 0,1 2 1 7 4 ZZW 1037,7 1,7
22.01.2020 07:00:00 0,0 -0,2 5 3 - - ZZO 1037,7 0,2
22.01.2020 06:00:00 0,0 0,0 5 3 7 4 ZZO 1037,9 0,4
22.01.2020 05:00:00 -0,1 -0,1 5 3 11 6 ZO 1038,3 0,3
22.01.2020 04:00:00 -0,1 -0,3 8 4 - - ZZO 1038,6 0,4
22.01.2020 03:00:00 -0,1 -0,1 5 3 11 6 Z 1038,8 0,4
22.01.2020 02:00:00 0,2 0,1 8 4 7 4 ZZO 1039,0 0,4
22.01.2020 01:00:00 0,1 0,0 0 0 - - N 1039,9 0,6
22.01.2020 00:00:00 -0,7 -0,7 2 1 11 6 - 1039,5 0,4
21.01.2020 23:00:00 -0,3 -0,3 2 1 11 6 - 1039,7 0,2
21.01.2020 22:00:00 -0,1 -0,3 2 1 - - - 1040,4 0,2
21.01.2020 21:00:00 0,0 -0,3 5 3 7 4 ZZO 1040,5 0,2
21.01.2020 20:00:00 0,1 0,0 2 1 7 4 - 1040,6 0,3
21.01.2020 19:00:00 0,2 -0,2 2 1 - - - 1040,9 0,7
21.01.2020 18:00:00 0,8 0,0 4 2 11 6 ZZO 1041,2 1,8
21.01.2020 17:00:00 1,2 0,0 8 4 11 6 ZZO 1041,2 3,0
21.01.2020 16:00:00 2,1 0,5 5 3 - - Z 1041,4 4,0
21.01.2020 15:00:00 2,0 0,2 5 3 11 6 ZZO 1041,7 4,0
21.01.2020 14:00:00 1,4 0,4 2 1 11 6 - 1042,1 2,5
21.01.2020 13:00:00 0,6 -0,1 5 3 - - Z 1042,9 4,0
21.01.2020 12:00:00 0,4 -0,4 4 2 7 4 - 1043,7 2,0
21.01.2020 11:00:00 0,2 -0,4 4 2 7 4 - 1043,8 0,5
21.01.2020 10:00:00 -0,1 -0,6 5 3 - - Z 1043,4 0,4
21.01.2020 09:00:00 -0,1 -0,4 0 0 11 6 N 1043,3 0,4
21.01.2020 08:00:00 0,0 -0,3 8 4 11 6 ZZO 1043,3 0,4
21.01.2020 07:00:00 0,5 0,5 8 4 - - ZZO 1043,3 0,6
21.01.2020 06:00:00 0,8 0,4 4 2 7 4 - 1043,3 0,6
21.01.2020 05:00:00 1,3 0,7 5 3 11 6 Z 1043,7 2,3
21.01.2020 04:00:00 1,6 0,9 8 4 - - ZZO 1044,3 2,4
21.01.2020 03:00:00 1,8 1,4 11 6 14 8 Z 1044,7 2,5
21.01.2020 02:00:00 1,9 1,5 9 5 18 10 Z 1045,2 1,6
21.01.2020 01:00:00 1,6 1,5 9 5 - - ZZO 1045,6 0,4
21.01.2020 00:00:00 1,4 1,3 5 3 11 6 OZO 1045,8 0,3
20.01.2020 23:00:00 2,2 2,1 8 4 11 6 OZO 1045,8 0,2
20.01.2020 22:00:00 2,9 2,9 4 2 - - - 1046,2 0,3
20.01.2020 21:00:00 3,3 3,3 5 3 7 4 ZO 1046,4 0,3
20.01.2020 20:00:00 3,1 2,9 4 2 7 4 O 1046,5 0,7
20.01.2020 19:00:00 3,2 2,8 5 3 - - ZZO 1046,6 2,5
20.01.2020 18:00:00 4,3 3,3 5 3 7 4 ZZO 1046,6 3,0
20.01.2020 17:00:00 4,7 3,7 4 2 7 4 Z 1046,9 4,0
20.01.2020 16:00:00 4,9 3,5 5 3 - - Z 1047,3 4,0
20.01.2020 15:00:00 4,9 3,7 4 2 11 6 - 1047,7 4,0
20.01.2020 14:00:00 4,6 3,3 5 3 11 6 ZZO 1048,2 4,0
20.01.2020 13:00:00 4,1 3,1 8 4 - - ZZO 1048,7 4,5
20.01.2020 12:00:00 2,8 1,9 5 3 11 6 Z 1048,9 4,5
20.01.2020 11:00:00 2,2 1,5 5 3 11 6 Z 1049,0 5
20.01.2020 10:00:00 0,7 0,4 5 3 - - ZO 1048,9 2,0
20.01.2020 09:00:00 0,1 -0,5 2 1 4 2 ZW 1048,4 3,0
20.01.2020 08:00:00 -2,2 -2,2 4 2 4 2 ZZO 1048,3 2,5
20.01.2020 07:00:00 -1,3 -1,4 0 0 - - N 1048,0 4,5
20.01.2020 06:00:00 -2,2 -2,2 2 1 4 2 - 1048,0 0,6
20.01.2020 05:00:00 0,4 0,3 0 0 4 2 N 1047,9 0,5
20.01.2020 04:00:00 0,8 0,3 2 1 - - NNW 1047,7 2,1
20.01.2020 03:00:00 0,0 0,0 4 2 7 4 N 1048,0 1,0
20.01.2020 02:00:00 -0,3 -0,3 0 0 7 4 N 1047,6 0,7
20.01.2020 01:00:00 3,6 2,7 5 3 - - NNW 1047,8 8
20.01.2020 00:00:00 4,0 2,8 5 3 11 6 N 1047,7 9
19.01.2020 23:00:00 4,4 2,6 8 4 11 6 NNW 1047,2 10
19.01.2020 22:00:00 4,2 1,9 8 4 - - NNW 1046,9 10
19.01.2020 21:00:00 4,5 1,7 8 4 11 6 N 1046,3 10
19.01.2020 20:00:00 5,0 1,1 8 4 11 6 N 1045,6 10
19.01.2020 19:00:00 5,2 1,3 5 3 - - N 1045,1 10
19.01.2020 18:00:00 5,4 0,9 8 4 18 10 NNO 1044,4 10
19.01.2020 17:00:00 7,3 1,1 9 5 29 16 NO 1043,2 10
19.01.2020 16:00:00 7,5 1,1 18 10 - - NNO 1042,4 10
19.01.2020 15:00:00 8,1 1,9 16 9 32 18 NNO 1041,6 10
19.01.2020 14:00:00 8,0 2,0 21 11 29 16 N 1041,2 10
19.01.2020 13:00:00 7,4 2,1 15 8 - - N 1040,8 10
19.01.2020 12:00:00 6,6 2,3 13 7 22 12 N 1040,5 10
19.01.2020 11:00:00 5,6 2,3 15 8 25 14 N 1040,0 10
19.01.2020 10:00:00 4,8 2,1 13 7 - - NNW 1038,9 10
19.01.2020 09:00:00 3,7 1,9 9 5 29 16 NNW 1037,6 10
19.01.2020 08:00:00 4,2 1,3 9 5 14 8 NNW 1036,3 10
19.01.2020 07:00:00 3,4 1,8 5 3 - - WNW 1035,6 10
19.01.2020 06:00:00 3,3 0,7 2 1 22 12 N 1035,1 10
19.01.2020 05:00:00 2,7 0,9 9 5 18 10 WNW 1034,9 10
19.01.2020 04:00:00 3,9 0,7 8 4 - - NW 1034,1 10
19.01.2020 03:00:00 3,3 1,5 9 5 11 6 W 1033,7 10
19.01.2020 02:00:00 3,2 1,3 8 4 14 8 W 1032,9 10
19.01.2020 01:00:00 3,7 1,5 11 6 - - W 1032,2 10
19.01.2020 00:00:00 4,0 1,6 9 5 14 8 W 1031,6 10
18.01.2020 23:00:00 4,3 1,7 11 6 14 8 W 1031,2 10
18.01.2020 22:00:00 4,7 1,8 11 6 - - WNW 1030,8 10
18.01.2020 21:00:00 4,5 1,6 9 5 14 8 W 1030,4 10
18.01.2020 20:00:00 5,0 1,6 9 5 22 12 W 1030,0 10
18.01.2020 19:00:00 5,9 1,2 15 8 - - WNW 1029,4 10
18.01.2020 18:00:00 6,0 1,0 15 8 29 16 WNW 1028,7 10
18.01.2020 17:00:00 6,3 0,8 18 10 29 16 WNW 1027,6 10
18.01.2020 16:00:00 7,1 1,5 15 8 - - WNW 1027,0 10
18.01.2020 15:00:00 7,3 0,8 21 11 32 18 NW 1026,5 10
18.01.2020 14:00:00 7,1 1,7 21 11 32 18 W 1026,1 10
18.01.2020 13:00:00 7,0 2,8 18 10 - - W 1026,0 10
18.01.2020 12:00:00 6,3 2,7 13 7 25 14 WZW 1025,9 10
18.01.2020 11:00:00 4,9 2,5 15 8 25 14 WZW 1025,6 10
18.01.2020 10:00:00 3,8 2,3 15 8 - - ZW 1024,8 10
18.01.2020 09:00:00 3,5 2,0 13 7 22 12 ZW 1024,0 10
18.01.2020 08:00:00 3,7 1,9 13 7 22 12 ZW 1023,2 10
18.01.2020 07:00:00 3,8 2,1 13 7 - - ZW 1022,5 10

tt = temperatuur
td = dauwpunt
ff = windsnelheid
fx = windstoten
dd = windrichting
ppp = luchtdruk
vv = zicht

Weerstations in de omgeving